This demonstration page uses our WeatherBlox Daily Observations layout. Learn more.

38.89511, -77.03637

Hourly Observations for September 1, 2019

Temp ( °F °C ) Dew Point ( °F °C ) Humidity (%) Winds ( mph kmh ) Pressure ( in mb ) Visibility ( mi km ) Precip ( " mm )
12:52 am 00:52 Cloudy 76 24.4 64 17.8 67 67 ENE 8 13 30.24 1024 10 16.09344 0 0
1:52 am 01:52 Cloudy 75 23.9 67 19.4 76 76 E 8 13 30.24 1024 10 16.09344 0 0
2:52 am 02:52 Cloudy 73 22.8 67 19.4 81 81 E 9 15 30.24 1024 10 16.09344 0 0
3:52 am 03:52 Cloudy 73 22.8 66 18.9 79 79 E 7 11 30.24 1024 10 16.09344 0 0
4:52 am 04:52 Cloudy 72 22.2 67 19.4 84 84 ENE 6 9 30.24 1024 10 16.09344 0 0
5:52 am 05:52 Mostly Cloudy 72 22.2 67 19.4 84 84 ENE 8 13 30.24 1024 10 16.09344 0 0
6:52 am 06:52 Mostly Cloudy 72 22.2 66 18.9 82 82 ENE 5 7 30.24 1024 10 16.09344 0 0
7:04 am 07:04 Mostly Cloudy 72 22.2 66 18.9 82 82 NE 7 11 30.27 1025 10 16.09344 0 0
7:07 am 07:07 Partly Cloudy 71 21.7 66 18.9 84 84 ENE 8 13 30.27 1025 10 16.09344 0 0
7:52 am 07:52 Mostly Cloudy 72 22.2 66 18.9 82 82 E 8 13 30.24 1024 10 16.09344 0 0
8:52 am 08:52 Mostly Cloudy 75 23.9 65 18.3 71 71 E 10 17 30.27 1025 10 16.09344 0 0
9:34 am 09:34 Mostly Cloudy 76 24.4 65 18.3 69 69 ESE 12 19 30.3 1026 10 16.09344 0 0
9:52 am 09:52 Mostly Cloudy 76 24.4 65 18.3 69 69 E 12 19 30.27 1025 10 16.09344 0 0
10:52 am 10:52 Cloudy 77 25 65 18.3 66 66 E 10 17 30.27 1025 10 16.09344 0 0
11:52 am 11:52 Cloudy 78 25.6 65 18.3 64 64 E 10 17 30.27 1025 10 16.09344 0 0
11:59 am 11:59 Cloudy 79 26.1 65 18.3 62 62 E 8 13 30.3 1026 10 16.09344 0 0
12:52 pm 12:52 Cloudy 80 26.7 65 18.3 60 60 E 6 9 30.27 1025 10 16.09344 0 0
1:52 pm 13:52 Cloudy 80 26.7 65 18.3 60 60 VRB 5 7 30.24 1024 10 16.09344 0 0
2:52 pm 14:52 Cloudy 81 27.2 65 18.3 58 58 ESE 6 9 30.21 1023 10 16.09344 0 0
3:52 pm 15:52 Cloudy 82 27.8 66 18.9 58 58 E 6 9 30.21 1023 10 16.09344 0 0
4:52 pm 16:52 Mostly Cloudy 82 27.8 66 18.9 58 58 E 10 17 30.18 1022 10 16.09344 0 0
5:52 pm 17:52 Mostly Cloudy 82 27.8 66 18.9 58 58 SE 8 13 30.18 1022 10 16.09344 0 0
6:52 pm 18:52 Mostly Cloudy 81 27.2 66 18.9 61 61 E 12 19 30.18 1022 10 16.09344 0 0
7:52 pm 19:52 Mostly Cloudy 79 26.1 67 19.4 67 67 ESE 8 13 30.18 1022 10 16.09344 0 0
8:52 pm 20:52 Mostly Cloudy 78 25.6 67 19.4 69 69 ESE 10 17 30.18 1022 10 16.09344 0 0
9:52 pm 21:52 Mostly Cloudy 76 24.4 68 20 77 77 SE 9 15 30.18 1022 10 16.09344 0 0
10:52 pm 22:52 Mostly Cloudy 75 23.9 68 20 79 79 SE 7 11 30.18 1022 10 16.09344 0 0
11:52 pm 23:52 Mostly Cloudy 74 23.3 68 20 82 82 SE 6 9 30.15 1021 10 16.09344 0 0

Powered by AerisWeather